Tracking 19817 objects as of 18-Aug-2019
HD Live streaming from Space Station
objects crossing your sky now

COSMOS 1541

Track COSMOS 1541 now!
COSMOS 1541 is classified as:


NORAD ID: 14790
Int'l Code: 1984-024A
Perigee: 7,989.6 km
Apogee: 32,407.9 km
Inclination: 71.6 °
Period: 718.4 minutes
Semi major axis: 26569 km
RCS: 7.9433 m2 (large)
Launch date: March 6, 1984
Source: Commonwealth of Independent States (former USSR) (CIS)
Launch site: PLESETSK MISSILE AND SPACE COMPLEX (PKMTR)
aabbcc
Your satellite tracking list
Your tracking list is empty




NASA's NSSDC Master Catalog

Two Line Element Set (TLE):
1 14790U 84024A   19227.38252194 +.00000131 +00000-0 +00000-0 0  9999
2 14790 071.6221 244.2676 4595119 056.1056 358.5087 02.00457320231858
Source of the keplerian elements: AFSPC